Погода в Мичиган Сити

США     41°43′08″N   86°54′15″W
темп.,
°C
ветер,
м/с
пор.,
м/с
влажн.,
%
обл.,
%
осадки,
мм/ч
давл.,
гПа
погр.,
м
26 июля, пн
пн2601:00+23зюз336613 0.0 101432
04:00+23ссз22820 0.0 101423
07:00+22сз44790 0.0 1016134
10:00+22ссз33720 0.0 1017180
13:00+23с11670 0.0 1017118
16:00+25в11580 0.0 101682
19:00+26ююв33660 0.0 101517
22:00+23ююз45770 0.0 101661
27 июля, вт
вт2701:00+22ююз45790 0.0 101783
04:00+22зюз34823 0.0 1017120
07:00+22ююз348295 0.0 1017132
10:00+24ю457839 0.0 1017162
13:00+26ю44682 0.0 1017129
16:00+27ю67690 0.0 1016156
19:00+26ююз56790 0.0 101576
22:00+24зюз33790 0.0 101622
28 июля, ср
ср2801:00+24зюз338653 0.0 101729
04:00+23зюз22915 0.0 101716
07:00+23юз23902 0.0 101835
10:00+25юз33840 0.0 1018109
13:00+27ю337582 0.0 1017123
16:00+28ю5673100 0.1 1015113
19:00+26з4581100 0.1 101459
22:00+25юз468427 0.0 101478
29 июля, чт
чт2901:00+24ююз4689100 0.0 101359
04:00+23зсз3394100 2.0 101348
07:00+22ююз101286100 25.5 1011276
10:00+22ююз9148998 3.8 1013487
13:00+23зюз579599 4.3 1012253
16:00+22с10119096 0.1 1014534
19:00+22с1013790 0.1 1015537
22:00+22ссв1014800 0.0 1016503
30 июля, пт
пт3001:00+22св9126910 0.0 1017584
04:00+21св6875100 0.0 1019423
07:00+20св576654 0.0 1021498
10:00+20св6767100 0.0 1021726
13:00+20с4459100 0.0 1022644
16:00+21с4458100 0.0 1021488
19:00+21с2357100 0.0 1020330
22:00+20юв2257100 0.0 1020154